This is the latest recevied weather packets stored in our database for station/object KW4UJ. If no packets are shown the sender has not sent any weather packets the latest 10 day(s).
| Time | Temp. | Humidity | Pressure | Rain* | Wind** | Luminosity | Snow |
|---|---|---|---|---|---|---|---|
| 1788353241 | 26.67° C | 80% | 1018.2 hPa | 0 mm | - | 115 W/m² | - |
| 1788352936 | 26.67° C | 80% | 1018.2 hPa | 0 mm | - | 87 W/m² | - |
| 1788352631 | 26.11° C | 81% | 1018.2 hPa | 0 mm | - | 74 W/m² | - |
| 1788352327 | 26.11° C | 81% | 1018.1 hPa | 0 mm | - | 64 W/m² | - |
| 1788352025 | 26.11° C | 82% | 1017.8 hPa | 0 mm | - | 68 W/m² | - |
| 1788351722 | 25.56° C | 83% | 1017.8 hPa | 0 mm | - | 64 W/m² | - |
| 1788351416 | 25.56° C | 85% | 1018 hPa | 0 mm | - | 63 W/m² | - |
| 1788351116 | 25° C | 86% | 1018 hPa | 0 mm | - | 68 W/m² | - |
| 1788350812 | 25° C | 88% | 1018.2 hPa | 0 mm | - | 64 W/m² | - |
| 1788350509 | 25° C | 88% | 1018 hPa | 0 mm | - | 47 W/m² | - |
| 1788350208 | 24.44° C | 88% | 1018 hPa | 0 mm | - | 39 W/m² | - |
| 1788349904 | 24.44° C | 88% | 1017.8 hPa | 0 mm | - | 41 W/m² | - |
| 1788349600 | 24.44° C | 88% | 1017.8 hPa | 0 mm | - | 42 W/m² | - |
| 1788349295 | 24.44° C | 88% | 1017.8 hPa | 0 mm | - | 35 W/m² | - |
| 1788348990 | 24.44° C | 87% | 1017.7 hPa | 0 mm | - | 26 W/m² | - |
| 1788348685 | 24.44° C | 87% | 1017.6 hPa | 0 mm | - | 21 W/m² | - |
| 1788348380 | 24.44° C | 87% | 1017.6 hPa | 0 mm | - | 18 W/m² | - |
| 1788348078 | 24.44° C | 87% | 1017.7 hPa | 0 mm | - | 17 W/m² | - |
| 1788347773 | 24.44° C | 87% | 1017.8 hPa | 0 mm | - | 16 W/m² | - |
| 1788347469 | 24.44° C | 87% | 1017.7 hPa | 0 mm | - | 13 W/m² | - |
| 1788347165 | 24.44° C | 87% | 1017.6 hPa | 0 mm | - | 13 W/m² | - |
| 1788346861 | 24.44° C | 86% | 1017.7 hPa | 0 mm | - | 13 W/m² | - |
| 1788346561 | 24.44° C | 87% | 1017.8 hPa | 0 mm | - | 10 W/m² | - |
| 1788346261 | 24.44° C | 87% | 1017.8 hPa | 0 mm | - | 6 W/m² | - |
| 1788345956 | 24.44° C | 87% | 1017.7 hPa | 0 mm | - | 3 W/m² | - |
* Rain latest hour (hover to see other rain measurements)
** Current wind speed in m/s (hover to see current wind gust speed)